Time,TemperatureF,DewpointF,PressureIn,WindDirection,WindDirectionDegrees,WindSpeedMPH,WindSpeedGustMPH,Humidity,HourlyPrecipIn,Conditions,Clouds,dailyrainin,SoftwareType,DateUTC
2013-04-10 00:13:00,60.3,54.0,30.09,SSE,167,3.0,4.0,79,0.00,,,0.00,weatherlink.com 1.10,2013-04-10 04:13:00,
2013-04-10 00:28:00,60.1,54.0,30.09,SSW,207,2.0,4.0,79,0.00,,,0.00,weatherlink.com 1.10,2013-04-10 04:28:00,
2013-04-10 00:43:00,59.6,53.0,30.09,SW,226,2.0,4.0,80,0.00,,,0.00,weatherlink.com 1.10,2013-04-10 04:43:00,
2013-04-10 00:58:00,59.0,54.0,30.10,SE,136,2.0,6.0,82,0.00,,,0.00,weatherlink.com 1.10,2013-04-10 04:58:00,
2013-04-10 01:13:00,58.5,53.0,30.10,South,169,1.0,2.0,82,0.00,,,0.00,weatherlink.com 1.10,2013-04-10 05:13:00,
2013-04-10 01:28:00,57.5,53.0,30.10,South,187,2.0,5.0,84,0.00,,,0.00,weatherlink.com 1.10,2013-04-10 05:28:00,
2013-04-10 01:44:00,56.5,52.0,30.09,SSE,156,4.0,5.0,86,0.00,,,0.00,weatherlink.com 1.10,2013-04-10 05:44:00,
2013-04-10 01:58:00,56.6,52.0,30.09,SW,222,0.0,5.0,85,0.00,,,0.00,weatherlink.com 1.10,2013-04-10 05:58:00,
2013-04-10 02:13:00,55.7,52.0,30.09,SSW,208,4.0,5.0,87,0.00,,,0.00,weatherlink.com 1.10,2013-04-10 06:13:00,
2013-04-10 02:28:00,55.3,52.0,30.09,SSE,166,4.0,5.0,88,0.00,,,0.00,weatherlink.com 1.10,2013-04-10 06:28:00,
2013-04-10 02:43:00,54.9,52.0,30.09,SSE,163,2.0,4.0,88,0.00,,,0.00,weatherlink.com 1.10,2013-04-10 06:43:00,
2013-04-10 02:58:00,54.4,51.0,30.08,SSW,210,3.0,5.0,89,0.00,,,0.00,weatherlink.com 1.10,2013-04-10 06:58:00,
2013-04-10 03:13:00,53.7,51.0,30.08,South,174,1.0,4.0,90,0.00,,,0.00,weatherlink.com 1.10,2013-04-10 07:13:00,
2013-04-10 03:28:00,53.5,51.0,30.08,South,170,2.0,5.0,91,0.00,,,0.00,weatherlink.com 1.10,2013-04-10 07:28:00,
2013-04-10 03:43:00,53.2,51.0,30.07,South,184,2.0,5.0,91,0.00,,,0.00,weatherlink.com 1.10,2013-04-10 07:43:00,
2013-04-10 03:58:00,53.2,51.0,30.07,SSE,147,4.0,6.0,92,0.00,,,0.00,weatherlink.com 1.10,2013-04-10 07:58:00,
2013-04-10 04:13:00,53.0,51.0,30.07,South,173,2.0,5.0,92,0.00,,,0.00,weatherlink.com 1.10,2013-04-10 08:13:00,
2013-04-10 04:28:00,53.0,51.0,30.07,SW,229,2.0,5.0,91,0.00,,,0.00,weatherlink.com 1.10,2013-04-10 08:28:00,
2013-04-10 04:43:00,52.5,50.0,30.07,South,172,0.0,5.0,91,0.00,,,0.00,weatherlink.com 1.10,2013-04-10 08:43:00,
2013-04-10 04:58:00,52.1,50.0,30.07,West,269,0.0,2.0,92,0.00,,,0.00,weatherlink.com 1.10,2013-04-10 08:58:00,
2013-04-10 05:13:00,52.1,50.0,30.08,NE,46,0.0,2.0,93,0.00,,,0.00,weatherlink.com 1.10,2013-04-10 09:13:00,
2013-04-10 05:28:00,51.6,50.0,30.08,SSW,204,0.0,2.0,93,0.00,,,0.00,weatherlink.com 1.10,2013-04-10 09:28:00,
2013-04-10 05:43:00,51.1,49.0,30.08,SE,146,1.0,3.0,93,0.00,,,0.00,weatherlink.com 1.10,2013-04-10 09:43:00,
2013-04-10 05:58:00,51.0,50.0,30.08,North,8,0.0,2.0,95,0.00,,,0.00,weatherlink.com 1.10,2013-04-10 09:58:00,
2013-04-10 06:13:00,50.9,49.0,30.08,NNE,25,0.0,2.0,94,0.00,,,0.00,weatherlink.com 1.10,2013-04-10 10:13:00,
2013-04-10 06:28:00,50.2,49.0,30.08,SSW,203,0.0,1.0,94,0.00,,,0.00,weatherlink.com 1.10,2013-04-10 10:28:00,
2013-04-10 06:44:00,49.7,48.0,30.08,SSW,193,1.0,2.0,94,0.00,,,0.00,weatherlink.com 1.10,2013-04-10 10:44:00,
2013-04-10 06:58:00,49.5,48.0,30.09,SE,136,0.0,1.0,95,0.00,,,0.00,weatherlink.com 1.10,2013-04-10 10:58:00,
2013-04-10 07:14:00,49.2,48.0,30.10,SW,214,0.0,1.0,95,0.00,,,0.00,weatherlink.com 1.10,2013-04-10 11:14:00,
2013-04-10 07:29:00,49.1,48.0,30.10,SSW,204,1.0,2.0,95,0.00,,,0.00,weatherlink.com 1.10,2013-04-10 11:29:00,
2013-04-10 07:44:00,49.1,48.0,30.10,South,190,3.0,5.0,95,0.00,,,0.00,weatherlink.com 1.10,2013-04-10 11:44:00,
2013-04-10 07:59:00,49.6,49.0,30.10,SSW,206,1.0,5.0,96,0.00,,,0.00,weatherlink.com 1.10,2013-04-10 11:59:00,
2013-04-10 08:14:00,50.2,49.0,30.09,SSE,153,3.0,5.0,95,0.00,,,0.00,weatherlink.com 1.10,2013-04-10 12:14:00,
2013-04-10 08:29:00,52.0,50.0,30.10,SSE,155,2.0,4.0,94,0.00,,,0.00,weatherlink.com 1.10,2013-04-10 12:29:00,
2013-04-10 08:44:00,55.2,52.0,30.10,SSE,153,1.0,3.0,89,0.00,,,0.00,weatherlink.com 1.10,2013-04-10 12:44:00,
2013-04-10 08:59:00,57.7,53.0,30.10,SSW,212,5.0,5.0,84,0.00,,,0.00,weatherlink.com 1.10,2013-04-10 12:59:00,
2013-04-10 09:14:00,59.6,53.0,30.10,South,188,2.0,5.0,80,0.00,,,0.00,weatherlink.com 1.10,2013-04-10 13:14:00,
2013-04-10 09:30:00,61.8,55.0,30.11,SSW,200,1.0,3.0,77,0.00,,,0.00,weatherlink.com 1.10,2013-04-10 13:30:00,
2013-04-10 09:44:00,65.5,55.0,30.11,South,173,0.0,1.0,70,0.00,,,0.00,weatherlink.com 1.10,2013-04-10 13:44:00,
2013-04-10 09:59:00,68.6,56.0,30.10,SW,231,0.0,1.0,65,0.00,,,0.00,weatherlink.com 1.10,2013-04-10 13:59:00,
2013-04-10 10:14:00,69.2,56.0,30.09,West,274,0.0,1.0,63,0.00,,,0.00,weatherlink.com 1.10,2013-04-10 14:14:00,
2013-04-10 10:29:00,71.6,58.0,30.09,WSW,245,0.0,2.0,62,0.00,,,0.00,weatherlink.com 1.10,2013-04-10 14:29:00,
2013-04-10 10:44:00,73.0,57.0,30.09,SSW,200,4.0,6.0,58,0.00,,,0.00,weatherlink.com 1.10,2013-04-10 14:44:00,
2013-04-10 10:59:00,74.2,56.0,30.08,SSW,205,3.0,8.0,53,0.00,,,0.00,weatherlink.com 1.10,2013-04-10 14:59:00,
2013-04-10 11:14:00,75.0,55.0,30.09,East,91,3.0,7.0,50,0.00,,,0.00,weatherlink.com 1.10,2013-04-10 15:14:00,
2013-04-10 11:29:00,77.8,55.0,30.08,West,274,0.0,3.0,46,0.00,,,0.00,weatherlink.com 1.10,2013-04-10 15:29:00,
2013-04-10 11:44:00,78.2,54.0,30.09,NNW,340,2.0,2.0,43,0.00,,,0.00,weatherlink.com 1.10,2013-04-10 15:44:00,
2013-04-10 11:59:00,78.5,53.0,30.09,North,349,1.0,4.0,42,0.00,,,0.00,weatherlink.com 1.10,2013-04-10 15:59:00,
2013-04-10 12:14:00,79.3,54.0,30.08,North,356,2.0,4.0,41,0.00,,,0.00,weatherlink.com 1.10,2013-04-10 16:14:00,
2013-04-10 12:29:00,79.7,54.0,30.07,North,1,2.0,8.0,41,0.00,,,0.00,weatherlink.com 1.10,2013-04-10 16:29:00,
2013-04-10 12:44:00,78.8,55.0,30.06,NW,326,3.0,8.0,44,0.00,,,0.00,weatherlink.com 1.10,2013-04-10 16:44:00,
2013-04-10 12:59:00,78.7,54.0,30.05,NNW,340,6.0,9.0,42,0.00,,,0.00,weatherlink.com 1.10,2013-04-10 16:59:00,
2013-04-10 13:14:00,80.4,55.0,30.05,WNW,303,0.0,6.0,41,0.00,,,0.00,weatherlink.com 1.10,2013-04-10 17:14:00,
2013-04-10 13:29:00,83.2,55.0,30.04,WNW,298,1.0,4.0,38,0.00,,,0.00,weatherlink.com 1.10,2013-04-10 17:29:00,
2013-04-10 13:45:00,82.4,56.0,30.03,WNW,288,0.0,9.0,40,0.00,,,0.00,weatherlink.com 1.10,2013-04-10 17:45:00,
2013-04-10 14:00:00,83.9,55.0,30.03,South,170,0.0,4.0,37,0.00,,,0.00,weatherlink.com 1.10,2013-04-10 18:00:00,
2013-04-10 14:15:00,85.1,55.0,30.02,SSW,197,7.0,7.0,35,0.00,,,0.00,weatherlink.com 1.10,2013-04-10 18:15:00,
2013-04-10 14:30:00,85.0,54.0,30.02,SE,136,1.0,7.0,34,0.00,,,0.00,weatherlink.com 1.10,2013-04-10 18:30:00,
2013-04-10 14:45:00,84.8,53.0,30.01,SE,131,0.0,9.0,33,0.00,,,0.00,weatherlink.com 1.10,2013-04-10 18:45:00,
2013-04-10 15:00:00,86.0,54.0,30.00,SSW,200,7.0,10.0,33,0.00,,,0.00,weatherlink.com 1.10,2013-04-10 19:00:00,
2013-04-10 15:15:00,86.0,54.0,30.00,SW,230,4.0,11.0,33,0.00,,,0.00,weatherlink.com 1.10,2013-04-10 19:15:00,
2013-04-10 15:30:00,85.2,55.0,29.98,SSW,201,6.0,10.0,36,0.00,,,0.00,weatherlink.com 1.10,2013-04-10 19:30:00,
2013-04-10 15:45:00,85.8,56.0,29.98,South,186,1.0,14.0,36,0.00,,,0.00,weatherlink.com 1.10,2013-04-10 19:45:00,
2013-04-10 16:00:00,85.8,57.0,29.96,SSE,155,8.0,16.0,37,0.00,,,0.00,weatherlink.com 1.10,2013-04-10 20:00:00,
2013-04-10 16:15:00,85.1,56.0,29.96,SE,136,11.0,15.0,37,0.00,,,0.00,weatherlink.com 1.10,2013-04-10 20:15:00,
2013-04-10 16:30:00,84.9,56.0,29.95,SW,225,8.0,17.0,37,0.00,,,0.00,weatherlink.com 1.10,2013-04-10 20:30:00,
2013-04-10 16:45:00,84.6,56.0,29.94,South,170,10.0,18.0,38,0.00,,,0.00,weatherlink.com 1.10,2013-04-10 20:45:00,
2013-04-10 17:00:00,84.3,57.0,29.94,South,179,11.0,19.0,39,0.00,,,0.00,weatherlink.com 1.10,2013-04-10 21:00:00,
2013-04-10 17:15:00,84.0,56.0,29.93,SSE,168,17.0,17.0,39,0.00,,,0.00,weatherlink.com 1.10,2013-04-10 21:15:00,
2013-04-10 17:30:00,83.9,57.0,29.93,SSE,160,8.0,22.0,40,0.00,,,0.00,weatherlink.com 1.10,2013-04-10 21:30:00,
2013-04-10 17:45:00,83.4,57.0,29.93,SE,146,13.0,24.0,40,0.00,,,0.00,weatherlink.com 1.10,2013-04-10 21:45:00,
2013-04-10 18:00:00,82.5,56.0,29.92,SSE,168,8.0,21.0,41,0.00,,,0.00,weatherlink.com 1.10,2013-04-10 22:00:00,
2013-04-10 18:15:00,82.1,55.0,29.92,South,185,9.0,25.0,40,0.00,,,0.00,weatherlink.com 1.10,2013-04-10 22:15:00,
2013-04-10 18:30:00,81.2,55.0,29.92,SSE,154,14.0,20.0,41,0.00,,,0.00,weatherlink.com 1.10,2013-04-10 22:30:00,
2013-04-10 18:45:00,81.0,56.0,29.91,SE,135,16.0,21.0,42,0.00,,,0.00,weatherlink.com 1.10,2013-04-10 22:45:00,
2013-04-10 19:00:00,80.2,56.0,29.91,SSE,155,7.0,24.0,43,0.00,,,0.00,weatherlink.com 1.10,2013-04-10 23:00:00,
2013-04-10 19:15:00,79.3,56.0,29.91,SSE,163,9.0,22.0,45,0.00,,,0.00,weatherlink.com 1.10,2013-04-10 23:15:00,
2013-04-10 19:30:00,78.2,57.0,29.91,SE,132,12.0,23.0,48,0.00,,,0.00,weatherlink.com 1.10,2013-04-10 23:30:00,
2013-04-10 19:45:00,77.2,57.0,29.92,SSE,151,12.0,22.0,50,0.00,,,0.00,weatherlink.com 1.10,2013-04-10 23:45:00,
2013-04-10 20:00:00,76.2,57.0,29.92,SE,139,9.0,17.0,51,0.00,,,0.00,weatherlink.com 1.10,2013-04-11 00:00:00,
2013-04-10 20:15:00,75.3,57.0,29.92,South,172,6.0,15.0,53,0.00,,,0.00,weatherlink.com 1.10,2013-04-11 00:15:00,
2013-04-10 20:30:00,74.6,57.0,29.92,SSE,150,9.0,15.0,54,0.00,,,0.00,weatherlink.com 1.10,2013-04-11 00:30:00,
2013-04-10 20:45:00,74.0,57.0,29.92,SSW,194,10.0,14.0,55,0.00,,,0.00,weatherlink.com 1.10,2013-04-11 00:45:00,
2013-04-10 21:00:00,73.4,57.0,29.92,SSE,148,11.0,15.0,56,0.00,,,0.00,weatherlink.com 1.10,2013-04-11 01:00:00,
2013-04-10 21:15:00,72.7,56.0,29.92,SW,214,8.0,11.0,57,0.00,,,0.00,weatherlink.com 1.10,2013-04-11 01:15:00,
2013-04-10 21:30:00,72.2,56.0,29.93,SSE,155,7.0,13.0,57,0.00,,,0.00,weatherlink.com 1.10,2013-04-11 01:30:00,
2013-04-10 21:45:00,71.9,56.0,29.93,SSE,159,7.0,15.0,58,0.00,,,0.00,weatherlink.com 1.10,2013-04-11 01:45:00,
2013-04-10 22:00:00,71.2,56.0,29.93,South,176,7.0,12.0,59,0.00,,,0.00,weatherlink.com 1.10,2013-04-11 02:00:00,
2013-04-10 22:15:00,70.5,56.0,29.93,SE,135,7.0,11.0,61,0.00,,,0.00,weatherlink.com 1.10,2013-04-11 02:15:00,
2013-04-10 22:30:00,70.2,56.0,29.92,SSE,153,10.0,15.0,62,0.00,,,0.00,weatherlink.com 1.10,2013-04-11 02:30:00,
2013-04-10 22:45:00,69.8,56.0,29.93,SSE,149,7.0,12.0,62,0.00,,,0.00,weatherlink.com 1.10,2013-04-11 02:45:00,
2013-04-10 23:00:00,69.4,56.0,29.93,South,184,4.0,7.0,63,0.00,,,0.00,weatherlink.com 1.10,2013-04-11 03:00:00,
2013-04-10 23:16:00,68.4,56.0,29.92,SSE,165,4.0,6.0,65,0.00,,,0.00,weatherlink.com 1.10,2013-04-11 03:16:00,
2013-04-10 23:46:00,64.3,55.0,29.94,SSE,156,0.0,5.0,73,0.00,,,0.00,weatherlink.com 1.10,2013-04-11 03:46:00,